Weather History for Fairbanks Ft. Wainwright, AK

Change the Weather History Date:

Saturday, April 19, 2014

  Actual Average Record
Temperature  
Mean Temperature 38 °F -  
Max Temperature 51 °F 45 °F 64 °F (1999)
Min Temperature 25 °F 25 °F 5 °F (2013)
Degree Days  
Heating Degree Days 27    
Moisture  
Dew Point 26 °F    
Average Humidity 60    
Maximum Humidity 88    
Minimum Humidity 36    
Precipitation  
Precipitation 0.00 in - - ()
Sea Level Pressure  
Sea Level Pressure 29.63 in    
Wind  
Wind Speed 5 mph (ENE)    
Max Wind Speed 15 mph    
Max Gust Speed -    
Visibility 10 miles    
Events      
Averages and records for this station are not official NWS values.
T = Trace of Precipitation, MM = Missing Value Source: NWS Daily Summary

Daily Weather History Graph

Daily Weather History Graph

Search for Another Location

Airport:

Trip Planner

Search our weather history database for the weather conditions in past years. The results will help you decide how hot, cold, wet, or windy it might be!

Date:

Astronomy

Apr. 19, 2014 Rise Set
Actual Time 6:00 AM AKDT 9:41 PM AKDT
Civil Twilight 4:59 AM AKDT 10:42 PM AKDT
Nautical Twilight 3:21 AM AKDT 12:25 AM AKDT
Astronomical Twilight Sun does not rise Sun does not rise
Moon 2:33 AM AKDT (4/19) 8:27 AM AKDT (4/19)
Length of Visible Light 17h 42m
Length of Day
15h 40m
Waning Gibbous, 77% of the Moon is Illuminated
Apr 19
Waning Gibbous
Apr 21
Last Quarter
Apr 28
New
May 6
First Quarter
May 14
Full

Hourly Weather History & Observations

Time (AKDT) Temp. Windchill Dew Point Humidity Pressure Visibility Wind Dir Wind Speed Gust Speed Precip Events Conditions
12:56 AM 37.0 °F 34.5 °F 28.9 °F 73% 29.60 in 10.0 mi ESE 3.5 mph - N/A   Overcast
1:56 AM 36.0 °F 30.3 °F 28.0 °F 73% 29.61 in 10.0 mi ENE 6.9 mph - N/A   Clear
2:56 AM 30.9 °F - 26.1 °F 82% 29.62 in 10.0 mi Calm Calm - N/A   Clear
3:56 AM 30.9 °F - 26.1 °F 82% 29.63 in 10.0 mi Calm Calm - N/A   Clear
4:56 AM 30.9 °F 26.2 °F 26.1 °F 82% 29.63 in 10.0 mi ENE 4.6 mph - N/A   Clear
5:56 AM 25.0 °F - 21.9 °F 88% 29.65 in 10.0 mi Calm Calm - N/A   Clear
6:56 AM 27.0 °F - 21.9 °F 81% 29.65 in 10.0 mi Calm Calm - N/A   Clear
7:56 AM 27.0 °F 23.0 °F 23.0 °F 85% 29.66 in 10.0 mi ENE 3.5 mph - N/A   Clear
8:56 AM 33.1 °F - 27.0 °F 78% 29.66 in 10.0 mi Calm Calm - N/A   Clear
9:56 AM 41.0 °F 35.8 °F 28.9 °F 62% 29.65 in 10.0 mi East 8.1 mph - N/A   Partly Cloudy
10:56 AM 44.1 °F 40.8 °F 28.9 °F 55% 29.65 in 10.0 mi ENE 5.8 mph - N/A   Clear
11:56 AM 46.0 °F 43.1 °F 28.9 °F 51% 29.64 in 10.0 mi East 5.8 mph - N/A   Clear
12:56 PM 48.0 °F - 28.0 °F 46% 29.64 in 10.0 mi Variable 5.8 mph - N/A   Clear
1:56 PM 50.0 °F - 26.1 °F 39% 29.63 in 10.0 mi NE 8.1 mph - N/A   Clear
2:56 PM 50.0 °F - 25.0 °F 38% 29.62 in 10.0 mi ENE 4.6 mph - N/A   Clear
3:56 PM 51.1 °F - 26.1 °F 38% 29.61 in 10.0 mi ENE 9.2 mph - N/A   Clear
4:56 PM 51.1 °F - 25.0 °F 36% 29.60 in 10.0 mi NE 11.5 mph - N/A   Clear
5:56 PM 50.0 °F - 25.0 °F 38% 29.60 in 10.0 mi NE 15.0 mph - N/A   Clear
6:56 PM 48.9 °F - 26.1 °F 41% 29.60 in 10.0 mi NE 12.7 mph - N/A   Clear
7:56 PM 46.9 °F - 27.0 °F 46% 29.61 in 10.0 mi NE 11.5 mph - N/A   Clear
8:56 PM 44.1 °F 38.1 °F 27.0 °F 51% 29.61 in 10.0 mi NE 11.5 mph - N/A   Clear
9:56 PM 42.1 °F 35.7 °F 26.1 °F 53% 29.62 in 10.0 mi ENE 11.5 mph - N/A   Clear
10:56 PM 41.0 °F 34.7 °F 26.1 °F 55% 29.63 in 10.0 mi ENE 10.4 mph - N/A   Clear
11:56 PM 39.9 °F 33.9 °F 26.1 °F 58% 29.64 in 10.0 mi ENE 9.2 mph - N/A   Clear